Regional Weather Roundup
Issued by NWS

Home | Current Version | Previous Version | Graphics & Text | Print | Product List | Glossary On
Versions: 1 2 3 4 5 6 7 8 9 10 11 12 13 14 15 16 17 18 19 20 21 22 23 24 25 26 27
000
ASUS45 KBOI 232310
RWRID
WEATHER ROUNDUP FOR IDAHO
NATIONAL WEATHER SERVICE BOISE ID
500 PM MDT THU OCT 23 2014

NOTE: "FAIR" INDICATES FEW OR NO CLOUDS BELOW 12000 FEET
WITH NO SIGNIFICANT WEATHER AND/OR OBSTRUCTIONS TO VISIBILITY

IDZ012-014-240000-
SOUTHWEST IDAHO


CITY           SKY/WX    TMP DP  RH WIND       PRES   REMARKS
BOISE          CLOUDY    60  45  57 E8        29.99F
CALDWELL       CLOUDY    61  45  55 SE8       29.99F
MOUNTAIN HOME  CLOUDY    61  46  57 E7        30.01S
$$

IDZ016-017-240000-
SOUTHCENTRAL IDAHO


CITY           SKY/WX    TMP DP  RH WIND       PRES   REMARKS
BURLEY         CLOUDY    60  36  40 NW5       30.05R
JEROME         CLOUDY    59  39  47 NW5       30.06S
TWIN FALLS     CLOUDY    62  38  40 N3        30.06S
$$

IDZ019>023-240000-
SOUTHEAST IDAHO


CITY           SKY/WX    TMP DP  RH WIND       PRES   REMARKS
IDAHO FALLS    PTSUNNY   60  32  34 SW13      30.06F
POCATELLO      MOSUNNY   62  32  32 CALM      30.07F
REXBURG        CLOUDY    58  30  34 SW8       30.06F
$$

IDZ006-010-011-018-031-032-240000-
CENTRAL IDAHO MOUNTAINS


CITY           SKY/WX    TMP DP  RH WIND       PRES   REMARKS
MCCALL         LGT RAIN  45  43  93 SE10      30.00S
HAILEY         CLOUDY    55  37  50 CALM      30.10S
STANLEY          N/A     49  35  58 S6        30.07R
SALMON         CLOUDY    61  37  41 S6        29.91S
CHALLIS        CLOUDY    59  35  40 SW9       29.97S
$$

IDZ002-004-006-007-026-240000-
NORTHERN IDAHO


CITY           SKY/WX    TMP DP  RH WIND       PRES   REMARKS
LEWISTON       HVY RAIN  54  48  80 W14G25    29.89R
LOWELL           N/A     53  51  93 CALM      29.92S
COEUR D`ALENE  CLOUDY    52  48  87 S5        29.81R
MULLAN PASS    LGT RAIN  37  37 100 NW8G20    29.86R VSB 1   WCI  31
$$



USA.gov is the U.S. government's official web portal to all federal, state and local government web resources and services.